RH
3 4 4 3 3 5 22 42 58 72 71 43 35 19 5 4 6 6 6 6 6 6 6 7 8 8 8 7 7 7 7 7 6 5 5 4 6 8 14 18 17 17 16 16
3 3 4 4 3 3 4 18 38 63 80 54 43 41 23 5 4 6 6 6 6 6 6 6 6 6 6 6 6 7 7 6 6 6 6 5 4 4 6 12 16 20 18 15
5 3 3 4 5 3 3 4 18 44 58 75 71 48 43 19 4 4 6 6 6 6 6 5 6 6 6 6 6 6 6 6 6 6 5 5 4 4 4 6 8 14 18 15
7 5 3 4 6 7 3 3 4 12 24 62 72 72 53 42 19 6 4 5 6 6 5 5 5 5 6 6 6 6 6 6 5 5 5 5 4 4 4 4 5 6 9 15
11 17 5 4 5 10 6 5 4 4 6 20 47 67 57 51 48 27 8 4 5 6 6 5 5 5 5 6 6 7 6 6 5 5 4 4 4 4 4 4 4 4 5 6
12 82 58 6 6 16 15 16 7 4 4 42 16 26 45 55 49 49 29 10 4 4 5 5 5 5 5 5 5 6 6 5 5 5 4 3 3 4 4 4 4 4 4 4
7 15 42 25 7 8 40 83 74 57 18 4 6 6 32 37 41 45 44 31 11 4 4 4 5 5 5 5 5 5 5 5 5 5 4 3 3 4 4 3 3 3 3 4
59 16 22 23 12 10 10 19 30 95 89 14 4 5 7 29 28 34 43 41 30 11 4 4 4 4 5 5 5 5 5 5 5 5 4 4 3 4 4 3 3 3 3 3
100 94 72 39 25 14 20 100 12 34 90 92 76 70 10 5 13 15 28 40 39 31 21 10 5 4 4 4 4 4 4 4 4 4 4 4 4 4 4 3 3 3 3 3
69 85 100 99 88 20 13 42 100 99 98 89 93 86 71 26 6 7 12 23 41 38 40 34 12 6 5 5 5 4 4 4 4 4 4 4 4 4 4 4 3 3 3 4
95 60 49 88 90 100 85 18 38 100 100 84 65 82 61 66 79 22 10 8 12 28 29 39 38 21 18 18 15 8 5 4 4 4 4 4 4 4 4 4 4 4 4 4
100 99 80 58 100 99 100 100 97 86 73 100 100 93 65 89 57 84 95 39 8 7 9 12 28 37 44 53 60 28 9 5 5 5 4 4 4 4 4 4 4 5 4 4
100 99 87 81 44 48 100 76 100 100 96 94 98 100 96 46 52 81 96 53 17 4 4 3 4 7 19 29 50 56 51 36 18 7 5 5 5 5 5 5 6 6 6 5
61 88 100 71 98 100 100 70 86 100 99 95 96 100 100 100 100 100 99 99 72 8 4 3 2 3 3 8 16 30 37 52 44 42 11 6 5 5 6 6 7 8 9 9
38 52 78 100 60 92 100 99 65 43 76 78 66 94 62 59 64 37 15 9 5 5 4 3 3 3 3 3 2 5 17 26 36 46 48 22 7 6 6 6 6 7 10 9
47 44 67 60 98 100 90 100 90 74 43 36 38 74 100 54 40 40 29 18 13 7 5 4 4 3 3 3 3 2 3 12 21 30 36 31 18 8 7 7 7 6 7 7
21 38 32 28 53 76 94 80 100 100 83 78 80 72 27 41 25 19 17 16 18 18 16 8 5 5 4 3 3 3 2 3 6 18 24 33 57 17 9 8 8 8 7 8
15 11 24 44 45 30 26 55 81 89 100 100 100 100 92 41 13 18 18 16 40 54 27 14 10 7 6 5 3 3 3 2 3 4 20 23 27 53 55 22 8 7 8 9
20 16 18 16 50 43 26 26 59 97 100 100 98 100 96 83 89 42 68 84 72 98 86 31 17 9 8 6 4 4 4 3 3 3 17 22 23 29 57 60 26 10 14 16
26 51 78 78 95 66 78 91 100 100 96 89 74 75 97 90 93 100 84 100 59 63 90 21 26 44 47 31 18 8 5 5 4 3 12 30 28 30 41 52 54 41 20 24
44 76 81 81 85 79 81 67 64 78 82 100 86 63 67 91 79 61 58 53 47 50 58 65 75 77 61 67 51 31 16 12 10 4 10 30 36 36 46 54 55 51 44 43
47 83 78 100 88 84 93 94 89 91 86 99 70 75 65 64 55 39 34 38 49 61 62 53 63 61 58 68 70 59 39 31 18 13 9 11 30 29 28 34 52 56 58 58
50 86 81 90 84 100 100 100 100 98 100 96 94 100 95 78 65 51 29 22 25 28 31 42 56 70 88 82 66 51 53 62 62 35 23 24 31 35 28 22 29 40 55 58
60 50 29 51 63 55 49 60 65 65 71 70 99 80 64 71 75 62 39 30 30 20 19 20 24 27 30 64 90 81 67 53 54 52 52 39 47 43 43 75 72 68 60 64
67 63 42 31 21 22 18 23 48 81 93 75 100 91 81 80 67 48 37 30 28 31 31 24 19 18 20 22 40 78 79 79 51 37 52 53 42 33 43 50 74 86 96 99
61 56 47 34 23 21 17 16 27 54 62 82 69 72 68 57 47 44 34 32 33 26 29 37 29 22 16 17 15 24 39 53 59 70 42 38 39 49 38 55 52 54 88 83
Wind_Speed
77 78 79 73 72 69 67 69 67 68 61 60 66 64 58 56 59 63 60 57 55 55 51 50 47 45 42 39 35 31 30 30 29 27 24 24 23 21 20 17 16 14 13 11
77 85 79 70 71 72 70 70 71 69 67 64 70 65 59 59 61 62 64 60 59 58 57 55 52 48 46 42 39 36 34 32 32 31 28 28 27 23 25 25 21 19 19 19
78 79 77 76 73 73 75 74 73 73 69 71 75 72 64 60 62 62 68 65 62 63 62 59 53 54 48 46 43 39 35 34 33 33 34 33 31 29 24 26 29 26 27 27
71 71 74 78 77 73 76 73 73 75 71 68 74 78 68 64 67 64 62 66 63 63 63 62 57 57 53 49 46 42 39 38 37 37 39 36 34 32 29 30 33 33 33 32
66 66 69 76 79 74 77 71 72 72 73 74 71 74 77 71 69 67 62 64 65 66 64 64 61 58 56 54 52 50 47 45 42 41 39 39 35 32 33 35 33 33 35 35
54 48 54 69 73 72 70 70 73 74 73 69 83 80 76 73 73 70 63 66 65 66 68 68 66 60 58 58 57 54 53 46 45 45 41 42 38 34 36 37 37 38 39 39
46 51 52 64 72 74 66 58 55 63 73 83 83 79 82 72 74 72 69 64 70 65 66 66 68 62 64 61 60 59 55 49 49 49 46 43 42 40 40 42 42 43 43 42
33 47 49 55 66 65 70 71 69 52 53 74 78 77 81 79 73 75 72 74 71 71 64 61 63 66 66 64 62 64 58 54 52 51 51 46 46 47 44 44 44 45 46 45
21 30 26 36 49 55 60 44 69 60 49 48 50 47 70 77 79 74 76 76 78 71 68 62 61 64 64 63 63 61 60 58 55 53 52 50 50 50 46 45 46 48 48 47
28 33 32 31 35 53 57 51 44 47 54 58 49 41 41 57 75 78 75 76 79 71 71 69 68 67 63 61 59 60 59 58 56 55 55 54 53 52 50 48 48 50 50 49
17 27 35 36 37 31 40 54 55 46 42 51 62 52 49 45 33 59 70 74 75 78 74 70 71 68 64 64 64 64 60 58 57 57 56 56 55 54 53 52 52 51 52 50
9 17 24 38 30 31 39 30 45 53 55 43 48 53 49 41 49 46 44 59 67 72 74 77 77 73 72 69 67 65 64 63 61 59 60 60 57 55 55 54 54 55 55 53
15 9 17 18 29 38 33 47 40 39 50 55 55 48 40 59 59 53 52 63 70 68 65 66 70 72 73 71 71 72 68 67 61 62 63 60 61 60 59 56 55 56 57 55
38 33 20 18 21 23 40 44 47 42 38 51 56 52 50 46 46 54 53 50 58 70 68 71 71 73 74 75 76 74 71 70 68 68 61 65 62 59 60 56 56 57 57 57
31 38 36 27 31 35 27 39 45 52 59 54 53 47 51 58 63 67 73 77 77 76 76 73 73 73 70 71 73 72 75 74 73 69 71 67 66 70 70 67 65 60 60 60
34 30 31 39 34 40 45 31 39 43 49 55 60 56 43 50 52 55 60 67 71 74 77 79 71 72 73 74 73 71 73 74 73 75 72 67 68 63 63 64 63 64 61 61
31 35 35 39 38 39 45 40 41 42 41 41 47 46 55 60 59 61 62 66 67 68 69 78 83 74 77 77 76 74 72 72 73 74 74 73 76 68 68 65 63 61 60 60
25 28 36 40 37 48 43 39 38 38 40 31 32 33 41 52 57 61 64 65 64 67 74 75 76 77 76 79 78 76 74 73 72 72 72 72 71 74 74 69 68 66 62 64
24 27 29 35 40 43 42 43 37 32 36 34 35 31 32 35 41 56 58 72 68 71 74 75 72 72 72 74 80 77 77 76 73 73 70 69 68 69 72 72 64 63 63 63
23 23 24 25 30 36 34 31 25 33 35 38 45 43 38 40 43 39 48 53 68 76 83 72 70 70 68 69 71 73 71 71 76 77 73 71 71 69 67 68 65 65 65 65
18 20 25 26 29 29 26 34 33 37 39 34 41 45 43 39 50 56 53 57 65 69 70 79 76 75 72 69 65 66 67 69 75 79 78 75 73 68 64 66 66 67 66 67
21 21 22 26 28 28 28 24 27 34 39 44 46 44 45 47 50 52 51 53 54 54 59 66 62 64 71 70 73 68 65 68 73 76 77 80 84 79 76 74 70 70 70 69
26 21 24 28 26 24 18 27 30 36 35 34 37 37 41 43 43 46 48 54 60 59 57 57 56 57 59 59 61 70 68 67 63 66 67 79 82 81 78 78 80 78 73 74
27 30 35 31 31 38 37 40 45 50 50 45 42 45 50 50 47 47 49 50 53 54 59 61 60 61 59 57 58 56 55 59 62 59 57 60 75 82 80 79 78 79 81 78
29 33 32 35 35 38 40 45 51 59 61 55 46 46 46 45 45 45 42 43 49 55 54 58 61 64 62 58 56 57 54 56 59 62 59 56 61 73 81 84 79 77 74 75
32 34 35 34 37 42 45 50 53 56 54 51 54 51 50 48 48 49 48 44 46 54 57 58 59 61 62 61 59 59 59 58 52 52 56 62 59 58 75 79 81 82 79 74
Wind_Direction
238 237 234 234 236 238 235 236 236 237 240 242 241 241 240 239 236 239 239 241 244 248 247 249 248 250 250 252 254 257 261 265 266 267 263 261 261 260 263 263 264 269 272 269
236 236 235 233 233 234 234 235 234 237 237 236 240 241 238 240 236 235 240 236 239 244 245 247 247 249 250 251 253 254 259 263 263 263 262 257 255 253 259 264 266 267 266 268
236 236 233 233 231 231 231 231 231 234 239 239 237 237 236 236 239 235 236 235 234 238 244 246 248 250 249 251 253 254 255 256 256 259 260 260 260 264 262 265 264 261 260 268
235 233 232 229 230 231 231 231 231 232 233 240 239 237 234 235 241 239 240 241 239 239 243 246 246 249 250 251 253 252 250 252 257 258 262 264 261 259 258 259 262 264 266 268
233 232 229 230 227 229 230 231 232 233 234 238 235 239 226 234 238 242 237 240 239 239 240 244 246 247 249 250 249 249 249 248 249 256 262 265 263 258 253 256 261 264 264 266
231 224 230 230 229 227 228 231 232 233 233 238 236 240 237 231 236 240 243 241 240 240 240 240 243 245 247 249 250 250 251 253 255 256 255 260 261 255 254 257 259 261 264 264
229 227 232 228 228 225 225 227 230 234 234 237 237 240 238 235 237 239 243 242 244 243 243 244 245 244 247 248 250 251 251 252 256 260 259 259 259 253 253 255 257 259 261 264
239 227 229 236 230 228 231 232 233 232 236 241 239 243 240 237 237 237 242 246 244 245 242 245 246 246 247 249 249 252 253 253 253 257 260 259 255 255 256 256 257 259 261 262
230 241 236 239 237 230 225 232 233 238 233 242 243 256 247 239 241 237 241 241 244 245 247 244 245 244 246 248 251 251 252 253 253 253 255 257 255 255 256 256 257 260 262 262
224 216 206 215 242 229 229 226 232 235 236 236 236 228 241 243 239 242 240 243 245 248 249 249 247 243 243 246 247 249 250 251 252 251 251 252 253 255 255 254 254 256 259 258
243 240 226 224 221 230 237 232 229 229 240 248 242 237 232 228 244 247 244 242 242 245 245 245 246 245 246 246 249 249 247 247 247 248 249 249 250 251 253 253 252 253 256 256
272 246 238 232 226 240 217 220 235 240 236 233 246 245 233 236 245 240 243 249 247 246 246 245 244 247 248 250 251 249 249 248 246 245 247 247 247 249 250 251 251 250 251 253
258 240 240 239 238 239 238 222 233 236 232 233 236 243 247 240 234 234 238 242 249 246 247 250 249 248 247 249 247 247 248 250 247 246 244 245 245 245 247 248 248 249 250 251
258 263 245 222 205 231 235 237 228 228 241 241 236 239 230 223 231 236 239 243 248 246 244 248 249 249 249 247 247 249 248 245 247 248 244 244 244 243 245 246 247 250 250 251
256 252 254 234 225 236 236 234 240 235 228 236 238 243 244 239 237 248 249 249 252 255 256 247 247 249 252 252 250 249 249 250 248 248 249 246 246 246 247 249 252 251 250 250
255 256 255 253 252 233 234 233 243 247 250 245 241 236 231 237 239 245 249 251 253 252 254 255 248 249 250 250 251 248 249 250 248 249 249 248 248 247 248 249 250 250 248 250
261 262 259 253 257 261 247 242 249 246 249 251 249 248 243 238 243 247 248 249 253 254 254 254 255 251 250 248 249 250 249 249 249 249 248 247 248 246 246 247 249 250 251 251
274 272 260 261 256 256 257 259 261 254 248 255 264 264 256 247 241 243 248 246 247 254 253 254 254 255 255 253 251 251 252 252 251 251 250 249 247 248 248 249 248 249 249 249
281 282 269 263 260 265 257 258 264 266 263 261 263 267 261 261 254 241 245 242 244 249 253 249 254 257 258 260 259 257 254 253 253 251 250 250 250 248 248 248 247 247 246 242
294 282 275 275 268 266 270 265 257 256 258 262 260 254 249 245 242 245 244 246 246 247 249 253 252 250 251 251 254 258 258 254 251 248 246 246 249 244 244 246 243 243 242 239
281 269 268 276 281 283 285 271 264 257 256 253 257 258 256 257 258 254 252 257 253 252 255 255 257 254 250 249 246 247 248 249 246 242 238 238 240 238 240 243 243 240 239 239
284 272 271 273 275 281 285 288 272 267 260 258 262 261 258 255 260 268 268 264 262 261 259 258 260 262 264 263 260 249 250 253 252 247 243 237 237 242 243 241 241 240 238 241
287 271 263 258 261 254 253 254 267 262 256 248 261 258 262 262 259 262 263 264 262 262 262 261 259 257 257 260 263 265 260 255 252 250 244 239 236 240 241 243 242 243 240 240
287 281 273 268 259 257 258 258 259 263 270 263 256 260 263 261 264 266 263 258 259 257 257 258 258 258 257 255 257 258 258 257 250 248 248 245 238 237 237 236 239 241 242 240
292 279 282 279 277 271 269 265 261 259 262 259 258 264 267 267 263 267 269 268 260 255 252 252 252 255 256 254 255 255 255 254 253 252 248 248 249 243 242 241 237 237 237 239
282 284 285 286 280 281 289 285 274 266 265 267 264 267 274 276 274 272 273 272 270 257 252 250 247 250 251 249 248 246 248 250 248 253 257 257 254 251 243 242 244 239 236 238